This is the latest recevied weather packets stored in our database for station/object EA5JUX. If no packets are shown the sender has not sent any weather packets the latest 10 day(s).
| Time | Temp. | Humidity | Pressure | Rain* | Wind** | Luminosity | Snow |
|---|---|---|---|---|---|---|---|
| 1777651590 | 21.67° C | 75% | 1018.9 hPa | 0 mm | - | - | - |
| 1777651289 | 21.67° C | 75% | 1019 hPa | 0 mm | - | - | - |
| 1777650989 | 21.67° C | 75% | 1018.9 hPa | 0 mm | - | - | - |
| 1777650690 | 21.11° C | 74% | 1018.7 hPa | 0 mm | - | - | - |
| 1777650390 | 21.11° C | 75% | 1018.9 hPa | 0 mm | - | - | - |
| 1777650089 | 21.67° C | 76% | 1018.8 hPa | 0 mm | - | - | - |
| 1777649789 | 21.67° C | 76% | 1019.1 hPa | 0 mm | - | - | - |
| 1777649490 | 21.67° C | 75% | 1019 hPa | 0 mm | - | - | - |
| 1777649201 | 21.11° C | 75% | 1018.8 hPa | 0 mm | - | - | - |
| 1777648889 | 22.22° C | 74% | 1018.7 hPa | 0 mm | - | - | - |
| 1777648289 | 22.22° C | 73% | 1018.7 hPa | 0 mm | - | - | - |
| 1777647989 | 21.67° C | 73% | 1018.8 hPa | 0 mm | - | - | - |
| 1777647704 | 22.22° C | 72% | 1018.9 hPa | 0 mm | - | - | - |
| 1777647391 | 21.67° C | 73% | 1019 hPa | 0 mm | - | - | - |
| 1777647090 | 22.22° C | 73% | 1019.1 hPa | 0 mm | - | - | - |
| 1777646790 | 22.22° C | 70% | 1018.8 hPa | 0 mm | - | - | - |
| 1777646489 | 22.22° C | 70% | 1018.8 hPa | 0 mm | - | - | - |
| 1777646189 | 22.22° C | 72% | 1018.9 hPa | 0 mm | - | - | - |
| 1777645889 | 22.78° C | 70% | 1019.1 hPa | 0 mm | - | - | - |
| 1777645589 | 22.78° C | 69% | 1018.9 hPa | 0 mm | - | - | - |
| 1777645289 | 22.78° C | 69% | 1019 hPa | 0 mm | - | - | - |
| 1777644989 | 22.78° C | 70% | 1018.9 hPa | 0 mm | - | - | - |
| 1777644689 | 22.22° C | 70% | 1019 hPa | 0 mm | - | - | - |
| 1777644390 | 22.78° C | 70% | 1019 hPa | 0 mm | - | - | - |
| 1777644090 | 22.22° C | 70% | 1019 hPa | 0 mm | - | - | - |
* Rain latest hour (hover to see other rain measurements)
** Current wind speed in m/s (hover to see current wind gust speed)